TimeEST,TemperatureF,Dew PointF,Humidity,Sea Level PressureIn,VisibilityMPH,Wind Direction,Wind SpeedMPH,Gust SpeedMPH,PrecipitationIn,Events,Conditions,WindDirDegrees,DateUTC
12:15 AM,39.2,35.6,87,30.17,10.0,East,15.0,-,N/A,,Overcast,90,2013-02-27 05:15:00
12:35 AM,39.2,33.8,81,30.16,10.0,East,13.8,20.7,N/A,,Overcast,90,2013-02-27 05:35:00
12:55 AM,39.2,33.8,81,30.15,10.0,East,15.0,23.0,N/A,,Overcast,90,2013-02-27 05:55:00
1:15 AM,41.0,33.8,76,30.13,10.0,East,12.7,20.7,N/A,,Overcast,100,2013-02-27 06:15:00
1:35 AM,41.0,35.6,81,30.12,10.0,East,15.0,24.2,N/A,,Overcast,100,2013-02-27 06:35:00
1:55 AM,41.0,35.6,81,30.10,10.0,East,15.0,23.0,N/A,,Overcast,90,2013-02-27 06:55:00
2:15 AM,42.8,37.4,81,30.09,10.0,East,13.8,23.0,N/A,,Overcast,100,2013-02-27 07:15:00
2:35 AM,42.8,37.4,81,30.07,10.0,East,16.1,21.9,N/A,,Overcast,90,2013-02-27 07:35:00
2:55 AM,42.8,39.2,87,30.07,10.0,ESE,15.0,20.7,N/A,,Overcast,110,2013-02-27 07:55:00
3:15 AM,42.8,39.2,87,30.06,10.0,East,13.8,18.4,N/A,,Overcast,100,2013-02-27 08:15:00
3:35 AM,42.8,39.2,87,30.05,10.0,East,12.7,24.2,N/A,,Overcast,100,2013-02-27 08:35:00
3:55 AM,42.8,39.2,87,30.06,10.0,East,13.8,21.9,N/A,,Overcast,100,2013-02-27 08:55:00
4:35 AM,42.8,39.2,87,30.05,9.0,ESE,12.7,17.3,N/A,,Overcast,110,2013-02-27 09:35:00
4:55 AM,42.8,39.2,87,30.05,6.0,East,16.1,21.9,N/A,,Overcast,100,2013-02-27 09:55:00
5:15 AM,42.8,41.0,93,30.04,7.0,East,15.0,19.6,N/A,,Overcast,100,2013-02-27 10:15:00
5:35 AM,42.8,39.2,87,30.02,7.0,East,17.3,25.3,N/A,,Overcast,100,2013-02-27 10:35:00
5:55 AM,42.8,39.2,87,30.01,7.0,East,16.1,23.0,N/A,,Overcast,100,2013-02-27 10:55:00
6:15 AM,42.8,41.0,93,30.00,8.0,ESE,19.6,25.3,N/A,,Overcast,110,2013-02-27 11:15:00
6:35 AM,42.8,41.0,93,29.99,8.0,East,17.3,29.9,N/A,,Overcast,100,2013-02-27 11:35:00
6:55 AM,42.8,41.0,93,29.97,5.0,ESE,17.3,32.2,N/A,,Overcast,110,2013-02-27 11:55:00
7:15 AM,42.8,41.0,93,29.97,7.0,ESE,23.0,29.9,N/A,,Overcast,110,2013-02-27 12:15:00
7:55 AM,42.8,41.0,93,29.95,6.0,East,19.6,34.5,N/A,,Overcast,100,2013-02-27 12:55:00
8:15 AM,42.8,41.0,93,29.94,5.0,ESE,24.2,36.8,N/A,,Overcast,110,2013-02-27 13:15:00
8:35 AM,42.8,41.0,93,29.93,5.0,ESE,20.7,32.2,N/A,,Overcast,110,2013-02-27 13:35:00
8:55 AM,42.8,41.0,93,29.93,5.0,ESE,20.7,29.9,N/A,,Overcast,110,2013-02-27 13:55:00
9:15 AM,42.8,42.8,100,29.92,5.0,ESE,21.9,28.8,N/A,,Overcast,110,2013-02-27 14:15:00
9:35 AM,42.8,41.0,93,29.91,5.0,ESE,19.6,28.8,N/A,,Overcast,120,2013-02-27 14:35:00
9:55 AM,42.8,41.0,93,29.90,5.0,ESE,21.9,33.4,N/A,,Overcast,110,2013-02-27 14:55:00
10:15 AM,42.8,42.8,100,29.88,5.0,ESE,17.3,33.4,N/A,,Overcast,110,2013-02-27 15:15:00
10:35 AM,42.8,41.0,93,29.87,4.0,ESE,24.2,33.4,N/A,,Overcast,110,2013-02-27 15:35:00
10:55 AM,42.8,41.0,93,29.86,5.0,East,26.5,36.8,N/A,,Overcast,100,2013-02-27 15:55:00
11:15 AM,42.8,39.2,87,29.85,5.0,ESE,21.9,36.8,N/A,,Overcast,110,2013-02-27 16:15:00
11:35 AM,42.8,41.0,93,29.83,4.0,East,23.0,38.0,N/A,,Overcast,100,2013-02-27 16:35:00
11:55 AM,42.8,41.0,93,29.81,4.0,East,31.1,43.7,N/A,,Overcast,100,2013-02-27 16:55:00
12:15 PM,42.8,41.0,93,29.81,4.0,East,25.3,35.7,N/A,,Overcast,100,2013-02-27 17:15:00
12:35 PM,42.8,39.2,87,29.78,3.0,East,27.6,38.0,N/A,,Overcast,100,2013-02-27 17:35:00
12:55 PM,42.8,39.2,87,29.77,2.5,East,23.0,47.2,N/A,,Overcast,100,2013-02-27 17:55:00
1:15 PM,42.8,39.2,87,29.77,2.5,East,28.8,38.0,N/A,,Overcast,100,2013-02-27 18:15:00
1:35 PM,42.8,39.2,87,29.75,2.5,East,29.9,44.9,N/A,,Overcast,100,2013-02-27 18:35:00
1:55 PM,42.8,39.2,87,29.73,3.0,East,24.2,46.0,N/A,,Overcast,100,2013-02-27 18:55:00
2:15 PM,41.0,41.0,100,29.73,3.0,East,28.8,38.0,N/A,,Overcast,100,2013-02-27 19:15:00
2:35 PM,41.0,39.2,93,29.72,2.0,East,24.2,40.3,N/A,,Overcast,90,2013-02-27 19:35:00
2:55 PM,42.8,41.0,93,29.70,3.0,East,26.5,38.0,N/A,,Overcast,100,2013-02-27 19:55:00
3:15 PM,42.8,41.0,93,29.70,5.0,East,25.3,36.8,N/A,,Overcast,90,2013-02-27 20:15:00
3:35 PM,42.8,39.2,87,29.68,3.0,East,23.0,38.0,N/A,,Overcast,90,2013-02-27 20:35:00
3:55 PM,42.8,41.0,93,29.67,5.0,East,24.2,38.0,N/A,,Overcast,100,2013-02-27 20:55:00
4:15 PM,42.8,41.0,93,29.65,5.0,East,29.9,35.7,N/A,,Overcast,100,2013-02-27 21:15:00
4:35 PM,42.8,41.0,93,29.64,7.0,East,25.3,35.7,N/A,,Overcast,100,2013-02-27 21:35:00
5:15 PM,44.6,42.8,93,29.63,3.0,East,21.9,35.7,N/A,,Overcast,100,2013-02-27 22:15:00
5:35 PM,44.6,42.8,93,29.63,5.0,ESE,20.7,36.8,N/A,,Overcast,110,2013-02-27 22:35:00
5:55 PM,44.6,42.8,93,29.64,4.0,ESE,21.9,34.5,N/A,,Overcast,110,2013-02-27 22:55:00
6:15 PM,44.6,42.8,93,29.63,7.0,East,21.9,31.1,N/A,,Overcast,100,2013-02-27 23:15:00
6:35 PM,44.6,42.8,93,29.62,7.0,ESE,18.4,28.8,N/A,,Overcast,110,2013-02-27 23:35:00
6:55 PM,44.6,42.8,93,29.61,5.0,East,15.0,26.5,N/A,,Overcast,100,2013-02-27 23:55:00
7:15 PM,44.6,44.6,100,29.60,5.0,ESE,15.0,26.5,N/A,,Overcast,110,2013-02-28 00:15:00
7:55 PM,44.6,44.6,100,29.57,9.0,ESE,19.6,27.6,N/A,,Overcast,110,2013-02-28 00:55:00
8:15 PM,44.6,42.8,93,29.57,8.0,ESE,13.8,19.6,N/A,,Overcast,110,2013-02-28 01:15:00
8:35 PM,44.6,44.6,100,29.57,7.0,SE,9.2,16.1,N/A,,Overcast,130,2013-02-28 01:35:00
9:15 PM,44.6,44.6,100,29.56,2.0,SSE,8.1,-,N/A,,Overcast,160,2013-02-28 02:15:00
9:35 PM,44.6,44.6,100,29.56,1.0,South,11.5,16.1,N/A,,Overcast,190,2013-02-28 02:35:00
9:55 PM,42.8,42.8,100,29.56,0.8,SSW,13.8,19.6,N/A,,Overcast,200,2013-02-28 02:55:00
10:35 PM,42.8,41.0,93,29.57,1.2,SSW,15.0,-,N/A,,Overcast,210,2013-02-28 03:35:00
10:55 PM,42.8,41.0,93,29.56,3.0,SSW,13.8,-,N/A,,Overcast,210,2013-02-28 03:55:00
11:35 PM,42.8,41.0,93,29.57,1.0,SSW,10.4,-,N/A,,Overcast,200,2013-02-28 04:35:00